GW2273 Weather Reports


time (UTC)temp
F
wind
direction
speed
knots
gust
knots
rain 1hr
in
rain 24hr
in
rain mn
in
humidity
%
barometer
mb
20260507044524 56 39 2.6 6.1 0.00 0.00 0.00 56 1019.4
20260507044024 56 40 2.6 6.1 0.00 0.00 0.00 56 1019.5
20260507043503 56 43 2.6 4.3 0.00 0.00 0.00 56 1019.4
20260507043003 56 46 2.6 5.2 0.00 0.00 0.00 56 1019.5
20260507042503 57 47 2.6 5.2 0.00 0.00 0.00 55 1019.5
20260507042003 57 50 2.6 5.2 0.00 0.00 0.00 55 1019.4
20260507041503 57 51 2.6 6.1 0.00 0.00 0.00 55 1019.5
20260507041003 57 47 3.5 7.8 0.00 0.00 0.00 55 1019.4
20260507040503 57 57 2.6 7.8 0.00 0.00 0.00 55 1019.2
20260507040003 57 70 2.6 5.2 0.00 0.00 0.00 54 1019.2
20260507035503 58 61 2.6 5.2 0.00 0.00 0.00 54 1019.2
20260507035024 58 58 2.6 5.2 0.00 0.00 0.00 54 1019.0
20260507034503 58 62 2.6 5.2 0.00 0.00 0.00 53 1018.9
20260507034003 58 59 2.6 7.0 0.00 0.00 0.00 53 1018.6
20260507033503 58 56 3.5 7.8 0.00 0.00 0.00 53 1018.6
20260507033003 58 55 3.5 7.8 0.00 0.00 0.00 52 1018.3
20260507032503 59 63 3.5 7.0 0.00 0.00 0.00 52 1018.3
20260507032003 59 67 2.6 7.0 0.00 0.00 0.00 52 1018.1
20260507031503 59 64 2.6 6.1 0.00 0.00 0.00 51 1018.0
20260507031003 59 67 2.6 6.1 0.00 0.00 0.00 51 1017.9
20260507030503 59 64 3.5 6.1 0.00 0.00 0.00 51 1017.8
20260507030003 60 62 3.5 6.1 0.00 0.00 0.00 51 1017.8
20260507025503 60 66 3.5 9.6 0.00 0.00 0.00 50 1017.5
20260507025024 60 65 3.5 9.6 0.00 0.00 0.00 50 1017.4
20260507024503 60 63 4.3 8.7 0.00 0.00 0.00 50 1017.2
20260507024003 60 64 3.5 7.8 0.00 0.00 0.00 50 1016.8
20260507023503 60 70 3.5 7.8 0.00 0.00 0.00 49 1016.8
20260507023003 61 69 4.3 8.7 0.00 0.00 0.00 49 1016.7
20260507022524 61 67 4.3 8.7 0.00 0.00 0.00 49 1016.7
20260507022003 61 61 4.3 9.6 0.00 0.00 0.00 48 1016.7
20260507021503 61 64 4.3 9.6 0.00 0.00 0.00 48 1016.6
20260507021003 61 65 4.3 8.7 0.00 0.00 0.00 48 1016.6
20260507020503 62 65 4.3 8.7 0.00 0.00 0.00 48 1016.5
20260507020003 62 77 4.3 8.7 0.00 0.00 0.00 47 1016.4
20260507015503 62 80 3.5 7.8 0.00 0.00 0.00 47 1016.3
20260507015024 62 76 3.5 7.8 0.00 0.00 0.00 47 1016.3
20260507014503 62 75 3.5 7.8 0.00 0.00 0.00 46 1016.2
20260507014003 63 74 3.5 7.8 0.00 0.00 0.00 46 1016.1
20260507013503 63 72 3.5 11.3 0.00 0.00 0.00 45 1016.1
20260507013003 63 75 4.3 11.3 0.00 0.00 0.00 45 1015.9
20260507012503 63 81 5.2 15.6 0.00 0.00 0.00 45 1015.9
20260507012003 64 81 5.2 15.6 0.00 0.00 0.00 44 1015.8
20260507011503 64 85 5.2 12.2 0.00 0.00 0.00 44 1015.7
20260507011003 64 90 5.2 11.3 0.00 0.00 0.00 44 1015.8
20260507010503 64 87 4.3 11.3 0.00 0.00 0.00 44 1015.7
20260507010003 65 80 5.2 11.3 0.00 0.00 0.00 43 1015.7
20260507005503 65 77 5.2 10.4 0.00 0.00 0.00 43 1015.6
20260507005003 65 67 6.1 12.2 0.00 0.00 0.00 43 1015.6
20260507004503 66 56 6.1 12.2 0.00 0.00 0.00 42 1015.6
20260507004003 66 50 7.0 11.3 0.00 0.00 0.00 42 1015.4
20260507003503 66 53 7.8 11.3 0.00 0.00 0.00 42 1015.3
20260507003003 66 59 7.0 13.9 0.00 0.00 0.00 42 1015.3
20260507002524 66 53 7.0 13.9 0.00 0.00 0.00 41 1015.2
20260507002024 66 59 6.1 13.0 0.00 0.00 0.00 41 1015.2
20260507001503 66 82 6.1 10.4 0.00 0.00 0.00 41 1015.2
20260507001003 66 67 6.1 11.3 0.00 0.00 0.00 41 1015.2
20260507000503 67 64 6.1 11.3 0.00 0.00 0.00 41 1015.2
20260507000003 67 80 6.1 12.2 0.00 0.00 0.00 41 1015.2
20260506235503 67 76 6.1 12.2 0.00 0.00 0.00 41 1015.2
20260506235003 67 66 6.1 12.2 0.00 0.00 0.00 42 1015.1
20260506234524 68 55 5.2 11.3 0.00 0.00 0.00 41 1015.0
20260506234003 68 60 5.2 11.3 0.00 0.00 0.00 41 1014.9
20260506233503 68 63 5.2 10.4 0.00 0.00 0.00 41 1015.0
20260506233003 68 58 5.2 12.2 0.00 0.00 0.00 41 1015.1
20260506232524 68 55 5.2 12.2 0.00 0.00 0.00 41 1015.0
20260506232003 68 46 6.1 13.0 0.00 0.00 0.00 41 1014.9
20260506231524 68 42 5.2 13.0 0.00 0.00 0.00 41 1014.9
20260506231003 68 39 5.2 13.0 0.00 0.00 0.00 42 1014.7
20260506230524 68 44 6.1 13.0 0.00 0.00 0.00 41 1014.9
20260506230003 68 53 4.3 9.6 0.00 0.00 0.00 42 1014.8
20260506225503 68 45 3.5 11.3 0.00 0.00 0.00 42 1015.0
20260506225024 68 27 5.2 11.3 0.00 0.00 0.00 42 1014.9
20260506224503 67 13 6.1 11.3 0.00 0.00 0.00 43 1015.0
20260506224003 68 20 5.2 11.3 0.00 0.00 0.00 41 1015.1
20260506223503 68 20 4.3 10.4 0.00 0.00 0.00 42 1015.0
20260506223003 68 4 4.3 10.4 0.00 0.00 0.00 42 1015.0
20260506222503 68 4 4.3 10.4 0.00 0.00 0.00 42 1014.8
20260506222003 68 359 4.3 8.7 0.00 0.00 0.00 42 1014.9
20260506221504 68 359 4.3 8.7 0.00 0.00 0.00 42 1014.8
20260506221003 68 358 4.3 9.6 0.00 0.00 0.00 43 1014.9
20260506220524 67 3 4.3 9.6 0.00 0.00 0.00 44 1014.8
20260506220003 67 10 5.2 10.4 0.00 0.00 0.00 44 1014.9
20260506215503 67 29 5.2 10.4 0.00 0.00 0.00 44 1014.9
20260506215003 66 56 5.2 11.3 0.00 0.00 0.00 44 1014.8
20260506214503 67 41 6.1 13.9 0.00 0.00 0.00 44 1015.0
20260506214003 67 28 5.2 13.9 0.00 0.00 0.00 44 1014.9
20260506213503 67 28 5.2 10.4 0.00 0.00 0.00 44 1014.8
20260506213003 67 28 5.2 9.6 0.00 0.00 0.00 45 1014.9
20260506212503 67 38 5.2 13.0 0.00 0.00 0.00 44 1015.0
20260506212024 66 47 5.2 13.0 0.00 0.00 0.00 45 1014.9
20260506211503 67 40 5.2 12.2 0.00 0.00 0.00 44 1015.0
20260506211003 67 47 4.3 12.2 0.00 0.00 0.00 44 1015.0
20260506210503 66 54 4.3 12.2 0.00 0.00 0.00 45 1015.1
20260506210024 66 34 4.3 10.4 0.00 0.00 0.00 45 1015.2
20260506205503 67 31 4.3 10.4 0.00 0.00 0.00 45 1015.3
20260506205003 66 44 4.3 12.2 0.00 0.00 0.00 46 1015.3
20260506204503 66 29 5.2 12.2 0.00 0.00 0.00 46 1015.4
20260506204003 66 3 5.2 13.0 0.00 0.00 0.00 46 1015.6
20260506203503 66 2 5.2 13.0 0.00 0.00 0.00 46 1015.5
20260506203003 66 19 4.3 12.2 0.00 0.00 0.00 45 1015.6
20260506202503 66 57 3.5 9.6 0.00 0.00 0.00 46 1015.6
20260506202003 66 54 4.3 13.0 0.00 0.00 0.00 47 1015.6
20260506201503 66 50 4.3 13.0 0.00 0.00 0.00 46 1015.7
20260506201003 65 49 4.3 10.4 0.00 0.00 0.00 47 1015.8
20260506200503 66 52 5.2 12.2 0.00 0.00 0.00 46 1015.8
20260506200003 66 43 4.3 12.2 0.00 0.00 0.00 47 1015.6
20260506195503 66 29 4.3 11.3 0.00 0.00 0.00 47 1015.9
20260506195003 65 35 4.3 8.7 0.00 0.00 0.00 48 1015.8
20260506194503 65 11 5.2 12.2 0.00 0.00 0.00 48 1015.8
20260506194003 64 352 6.1 13.0 0.00 0.00 0.00 48 1015.9
20260506193503 65 356 4.3 13.0 0.00 0.00 0.00 48 1015.9
20260506193024 65 27 4.3 9.6 0.00 0.00 0.00 49 1015.9
20260506192503 64 57 4.3 9.6 0.00 0.00 0.00 49 1016.1
20260506192003 63 70 5.2 13.9 0.00 0.00 0.00 50 1016.1
20260506191503 63 70 6.1 13.9 0.00 0.00 0.00 50 1016.2
20260506191003 63 68 6.1 11.3 0.00 0.00 0.00 50 1016.2
20260506190524 63 51 5.2 11.3 0.00 0.00 0.00 50 1016.2
20260506190024 63 17 4.3 10.4 0.00 0.00 0.00 51 1016.2
20260506185503 63 15 4.3 10.4 0.00 0.00 0.00 50 1016.4
20260506185003 63 41 4.3 11.3 0.00 0.00 0.00 50 1016.4
20260506184503 62 67 4.3 11.3 0.00 0.00 0.00 52 1016.4
20260506184003 62 86 4.3 8.7 0.00 0.00 0.00 52 1016.4
20260506183503 62 47 4.3 10.4 0.00 0.00 0.00 53 1016.4
20260506183003 61 18 5.2 10.4 0.00 0.00 0.00 53 1016.6
20260506182503 61 41 4.3 10.4 0.00 0.00 0.00 53 1016.6
20260506182003 61 39 3.5 8.7 0.00 0.00 0.00 53 1016.7
20260506181524 61 27 4.3 12.2 0.00 0.00 0.00 53 1016.9
20260506181024 61 29 4.3 12.2 0.00 0.00 0.00 53 1016.8
20260506180503 61 43 5.2 10.4 0.00 0.00 0.00 53 1016.8
20260506180003 61 77 6.1 13.9 0.00 0.00 0.00 54 1016.8
20260506175503 60 90 4.3 13.9 0.00 0.00 0.00 56 1016.9
20260506175003 60 85 4.3 13.0 0.00 0.00 0.00 55 1017.0
20260506174503 59 73 5.2 13.0 0.00 0.00 0.00 56 1017.2
20260506174003 60 60 5.2 11.3 0.00 0.00 0.00 55 1017.0
20260506173503 59 72 4.3 9.6 0.00 0.00 0.00 56 1017.0
20260506173003 58 64 5.2 11.3 0.00 0.00 0.00 59 1017.1
20260506172503 58 55 5.2 11.3 0.00 0.00 0.00 58 1017.2
20260506172003 58 76 4.3 9.6 0.00 0.00 0.00 58 1017.0
20260506171503 57 98 6.1 11.3 0.00 0.00 0.00 60 1017.2
20260506171003 56 101 7.0 11.3 0.00 0.00 0.00 60 1017.3
20260506170503 57 99 6.1 11.3 0.00 0.00 0.00 59 1017.3
20260506170003 56 100 6.1 12.2 0.00 0.00 0.00 60 1017.4
20260506165503 56 99 7.0 15.6 0.00 0.00 0.00 61 1017.5
20260506165003 56 87 7.0 15.6 0.00 0.00 0.00 60 1017.4
20260506164503 56 65 5.2 13.0 0.00 0.00 0.00 61 1017.5
20260506164003 55 78 5.2 13.0 0.00 0.00 0.00 62 1017.4
20260506163503 55 99 6.1 13.0 0.00 0.00 0.00 62 1017.4
20260506163003 55 100 7.0 15.6 0.00 0.00 0.00 62 1017.4
20260506162524 55 97 7.0 15.6 0.00 0.00 0.00 62 1017.2
20260506162003 55 98 7.0 12.2 0.00 0.00 0.00 63 1017.3
20260506161503 54 96 7.0 14.8 0.00 0.00 0.00 65 1017.4
20260506161003 54 89 7.0 14.8 0.00 0.00 0.00 63 1017.5
20260506160503 54 79 5.2 10.4 0.00 0.00 0.00 65 1017.5
20260506160003 54 72 4.3 10.4 0.00 0.00 0.00 64 1017.6
20260506155503 54 86 5.2 13.0 0.00 0.00 0.00 65 1017.8
20260506155003 53 99 6.1 14.8 0.00 0.00 0.00 66 1017.8
20260506154503 53 89 7.0 14.8 0.00 0.00 0.00 65 1017.9
20260506154003 53 89 7.0 13.9 0.00 0.00 0.00 65 1017.8
20260506153503 53 73 6.1 12.2 0.00 0.00 0.00 66 1017.7
20260506153003 52 71 6.1 13.0 0.00 0.00 0.00 67 1017.8
20260506152524 52 93 7.0 13.0 0.00 0.00 0.00 67 1017.9
20260506152003 52 88 6.1 13.0 0.00 0.00 0.00 67 1017.9
20260506151503 52 71 5.2 12.2 0.00 0.00 0.00 68 1017.9
20260506151024 52 76 6.1 12.2 0.00 0.00 0.00 68 1017.8
20260506150503 51 91 6.1 11.3 0.00 0.00 0.00 69 1017.9
20260506150003 51 79 6.1 11.3 0.00 0.00 0.00 69 1017.9
20260506145524 51 63 6.1 11.3 0.00 0.00 0.00 69 1017.7
20260506145024 51 63 6.1 12.2 0.00 0.00 0.00 68 1017.6
20260506144503 51 69 6.1 12.2 0.00 0.00 0.00 68 1017.5
20260506144024 52 65 5.2 10.4 0.00 0.00 0.00 68 1017.4
20260506143524 51 57 5.2 10.4 0.00 0.00 0.00 69 1017.4
20260506143003 51 51 6.1 12.2 0.00 0.00 0.00 69 1017.3
20260506142524 51 52 7.0 16.5 0.00 0.00 0.00 69 1016.8
20260506142003 50 53 7.0 16.5 0.00 0.00 0.00 69 1016.7
20260506141524 50 48 7.0 13.9 0.00 0.00 0.00 69 1016.7
20260506141003 50 45 7.0 13.9 0.00 0.00 0.00 69 1016.7
20260506140503 50 39 5.2 13.0 0.00 0.00 0.00 69 1016.7
20260506140003 50 38 6.1 13.9 0.00 0.00 0.00 70 1016.7
20260506135503 50 42 6.1 13.9 0.00 0.00 0.00 70 1016.6
20260506135024 50 43 6.1 13.9 0.00 0.00 0.00 70 1016.7
20260506134503 50 49 6.1 13.9 0.00 0.00 0.00 71 1016.7
20260506134003 50 50 7.0 15.6 0.00 0.00 0.00 71 1016.7
20260506133503 49 49 7.0 15.6 0.00 0.00 0.00 71 1016.4
20260506133024 49 45 7.8 15.6 0.00 0.00 0.00 72 1016.6
20260506132503 49 41 7.0 17.4 0.00 0.00 0.00 72 1016.6
20260506132003 49 34 7.8 17.4 0.00 0.00 0.00 71 1016.5
20260506131503 49 27 7.0 15.6 0.00 0.00 0.00 71 1016.3
20260506131003 49 24 6.1 14.8 0.00 0.00 0.00 71 1016.3
20260506130524 49 27 5.2 13.0 0.00 0.00 0.00 71 1016.4
20260506130003 49 27 6.1 13.0 0.00 0.00 0.00 71 1016.3
20260506125503 49 28 7.0 14.8 0.00 0.00 0.00 71 1016.3
20260506125003 49 29 7.0 14.8 0.00 0.00 0.00 70 1016.4
20260506124503 49 28 6.1 14.8 0.00 0.00 0.00 70 1016.4
20260506124024 49 37 6.1 14.8 0.00 0.00 0.00 70 1016.2
20260506123503 49 38 6.1 17.4 0.00 0.00 0.00 70 1016.1
20260506123003 49 34 6.1 13.0 0.00 0.00 0.00 70 1016.2
20260506122503 49 33 6.1 13.0 0.00 0.00 0.00 70 1016.2
20260506122003 49 34 6.1 13.0 0.00 0.00 0.00 69 1016.0
20260506121503 49 45 5.2 12.2 0.00 0.00 0.00 69 1015.9
20260506121003 49 48 6.1 13.9 0.00 0.00 0.00 69 1016.0
20260506120503 49 46 7.0 13.9 0.00 0.00 0.00 68 1015.9
20260506120024 49 51 7.0 13.0 0.00 0.00 0.00 68 1015.9
20260506115503 49 51 6.1 11.3 0.00 0.00 0.00 67 1015.8
20260506115003 49 51 5.2 11.3 0.00 0.00 0.00 67 1015.8
20260506114503 49 57 6.1 12.2 0.00 0.00 0.00 66 1016.0
20260506114003 49 57 6.1 12.2 0.00 0.00 0.00 66 1016.0
20260506113503 49 56 6.1 13.0 0.00 0.00 0.00 65 1016.1
20260506113003 49 52 6.1 13.0 0.00 0.00 0.00 65 1015.9
20260506112524 49 52 5.2 10.4 0.00 0.00 0.00 64 1015.7
20260506112003 49 55 7.0 14.8 0.00 0.00 0.00 64 1015.5
20260506111503 49 48 7.8 16.5 0.00 0.00 0.00 64 1015.5
20260506111003 49 45 7.8 16.5 0.00 0.00 0.00 64 1015.5
20260506110503 49 50 7.0 13.0 0.00 0.00 0.00 64 1015.6
20260506110003 49 49 7.0 16.5 0.00 0.00 0.00 64 1015.4
20260506105503 49 45 7.0 16.5 0.00 0.00 0.00 64 1015.3
20260506105003 49 49 6.1 12.2 0.00 0.00 0.00 65 1015.2
20260506104503 49 53 5.2 12.2 0.00 0.00 0.00 65 1015.1
20260506104003 49 51 7.0 14.8 0.00 0.00 0.00 66 1015.0
20260506103503 49 53 7.0 14.8 0.00 0.00 0.00 66 1015.0
20260506103003 49 54 7.0 15.6 0.00 0.00 0.00 66 1014.8
20260506102503 49 49 7.8 15.6 0.00 0.00 0.00 66 1014.6
20260506102003 49 48 7.0 13.9 0.00 0.00 0.00 67 1015.5
20260506101503 49 49 6.1 13.9 0.00 0.00 0.00 67 1015.5
20260506101003 49 47 6.1 12.2 0.00 0.00 0.00 67 1015.5
20260506100503 49 44 5.2 11.3 0.00 0.00 0.00 67 1015.4
20260506100003 49 46 5.2 15.6 0.00 0.00 0.00 67 1015.2
20260506095524 49 46 7.0 15.6 0.00 0.00 0.00 67 1015.1
20260506095003 49 42 7.0 13.0 0.00 0.00 0.00 68 1015.6
20260506094524 49 43 7.0 14.8 0.00 0.00 0.00 68 1015.3
20260506094003 49 43 7.0 15.6 0.00 0.00 0.00 69 1015.6
20260506093524 49 38 5.2 15.6 0.00 0.00 0.00 70 1015.3
20260506093024 49 38 6.1 13.0 0.00 0.00 0.00 71 1015.7
20260506092503 48 41 7.0 14.8 0.00 0.00 0.00 72 1015.4
20260506092003 48 41 6.1 14.8 0.00 0.00 0.00 72 1015.0
20260506091524 48 33 5.2 13.0 0.00 0.00 0.00 73 1015.0
20260506091003 48 30 4.3 13.0 0.00 0.00 0.00 74 1015.0
20260506090503 48 34 5.2 12.2 0.00 0.00 0.00 75 1014.8
20260506090003 48 35 6.1 11.3 0.00 0.00 0.00 75 1014.6
20260506085503 48 30 6.1 13.0 0.00 0.00 0.00 76 1014.4
20260506085003 48 23 5.2 13.0 0.00 0.00 0.00 76 1014.6
20260506084503 48 20 5.2 11.3 0.00 0.00 0.00 76 1014.7
20260506084003 48 17 5.2 12.2 0.00 0.00 0.00 77 1014.7
20260506083503 49 28 5.2 12.2 0.00 0.00 0.00 77 1014.6
20260506083024 49 31 5.2 12.2 0.00 0.00 0.00 77 1014.7
20260506082524 49 31 5.2 12.2 0.00 0.00 0.00 77 1014.8
20260506082003 49 40 4.3 11.3 0.00 0.00 0.00 77 1014.8
20260506081524 49 41 4.3 9.6 0.00 0.00 0.00 77 1014.8
20260506081003 49 35 4.3 8.7 0.00 0.00 0.00 77 1014.7
20260506080503 49 45 4.3 11.3 0.00 0.00 0.00 78 1014.9
20260506073503 49 45 4.3 10.4 0.00 0.00 0.00 77 1014.4
20260506073003 49 32 4.3 11.3 0.00 0.00 0.00 77 1014.2
20260506072503 49 21 4.3 11.3 0.00 0.00 0.00 77 1014.0
20260506072003 49 32 3.5 7.8 0.00 0.00 0.00 77 1014.1
20260506071503 49 50 3.5 9.6 0.00 0.00 0.00 77 1014.1
20260506071003 49 53 3.5 9.6 0.00 0.00 0.00 77 1014.1
20260506070503 49 61 4.3 10.4 0.00 0.00 0.00 77 1014.0
20260506062503 49 44 5.2 13.0 0.00 0.00 0.00 76 1013.6
20260506062003 49 46 6.1 13.0 0.00 0.00 0.00 76 1013.7
20260506061503 49 44 6.1 15.6 0.00 0.00 0.00 76 1013.8
20260506061024 49 38 6.1 15.6 0.00 0.00 0.00 76 1013.6
20260506060503 49 46 7.8 15.6 0.00 0.00 0.00 75 1013.4
20260506051003 50 44 7.0 17.4 0.00 0.00 0.00 73 1013.3
20260506050503 50 41 5.2 12.2 0.00 0.00 0.00 73 1013.5
20260506045003 50 33 7.8 16.5 0.00 0.00 0.00 72 1013.6